This demonstration page uses our WeatherBlox Daily Observations layout. Learn more.

Left ArrowRight Arrow

Hourly Observations for September 24, 2022

Temp ( °F °C ) Dew Point ( °F °C ) Humidity (%) Winds ( mph kmh ) Pressure ( in mb ) Visibility ( mi km ) Precip ( " mm )
12:54 am 00:54 Clear 53 11.7 51 10.6 93 93 S 5 7 29.93 1014 7 11 0.00 0.00
1:54 am 01:54 Clear with Mist and Fog 52 11.1 51 10.6 97 97 S 5 7 29.94 1014 6 10 0.00 0.00
2:54 am 02:54 Clear with Mist and Fog 53 11.7 51 10.6 93 93 Calm 29.94 1014 6 10 0.00 0.00
3:54 am 03:54 Clear 54 12.2 53 11.7 97 97 N 5 7 29.93 1014 9 14 0.00 0.00
4:54 am 04:54 Clear 51 10.6 50 10 96 96 SSE 6 9 29.93 1014 8 13 0.00 0.00
5:54 am 05:54 Clear 52 11.1 50 10 93 93 SSW 5 7 29.94 1014 10 16 0.00 0.00
6:54 am 06:54 Clear 53 11.7 50 10 89 89 Calm 29.95 1014 10 16 0.00 0.00
7:54 am 07:54 Sunny 53 11.7 50 10 89 89 S 3 6 29.96 1015 10 16 0.00 0.00
8:54 am 08:54 Sunny 59 15 54 12.2 83 83 Calm 29.96 1015 10 16 0.00 0.00
9:54 am 09:54 Sunny 69 20.6 54 12.2 59 59 WSW 5 7 29.96 1015 10 16 0.00 0.00
10:54 am 10:54 Sunny 79 26.1 51 10.6 38 38 WNW 10 17 29.96 1014 10 16 0.00 0.00
11:54 am 11:54 Sunny 84 28.9 47 8.3 27 27 WNW 16 26 29.95 1014 10 16 0.00 0.00
12:54 pm 12:54 Sunny 87 30.6 45 7.2 23 23 W 16 26 29.93 1014 10 16 0.00 0.00
1:54 pm 13:54 Sunny 89 31.7 43 6.1 20 20 W 15 24 29.90 1013 10 16 0.00 0.00
2:54 pm 14:54 Sunny 90 32.2 41 5 18 18 W 17 28 29.88 1012 10 16 0.00 0.00
3:54 pm 15:54 Sunny 91 32.8 39 3.9 16 16 NW 21 33 29.87 1012 10 16 0.00 0.00
4:54 pm 16:54 Sunny 90 32.2 40 4.4 17 17 NW 15 24 29.86 1011 10 16 0.00 0.00
5:54 pm 17:54 Sunny 88 31.1 40 4.4 19 19 NNW 14 22 29.86 1011 10 16 0.00 0.00
6:54 pm 18:54 Sunny 83 28.3 43 6.1 24 24 N 9 15 29.88 1012 10 16 0.00 0.00
7:54 pm 19:54 Mostly Clear 77 25 43 6.1 30 30 N 8 13 29.90 1013 10 16 0.00 0.00
8:54 pm 20:54 Clear 75 23.9 47 8.3 37 37 N 13 20 29.94 1014 10 16 0.00 0.00
9:54 pm 21:54 Clear 71 21.7 48 8.9 44 44 N 7 11 29.97 1015 10 16 0.00 0.00
10:54 pm 22:54 Clear 68 20 49 9.4 50 50 N 5 7 29.98 1015 10 16 0.00 0.00
11:54 pm 23:54 Clear 69 20.6 48 8.9 47 47 NNW 5 7 29.99 1016 10 16 0.00 0.00

Powered by AerisWeather